Regional Weather Roundup
Issued by NWS Upton, NY

Current Version | Previous Version | Text Only | Print | Product List | Glossary On
Versions: 1 2 3 4 5 6 7 8 9 10 11 12 13 14 15 16 17 18 19 20 21 22 23 24 25 26 27 28 29 30 31 32 33 34 35 36 37 38 39 40 41 42 43 44 45 46 47 48 49 50
000 ASUS41 KOKX 200109 RWROKX REGIONAL WEATHER ROUNDUP NATIONAL WEATHER SERVICE NEW YORK NY 900 PM EDT WED JUL 19 2017 NOTE: "FAIR" INDICATES FEW OR NO CLOUDS BELOW 12,000 FEET WITH NO SIGNIFICANT WEATHER AND/OR OBSTRUCTIONS TO VISIBILITY. NYZ071-072-176-178-NJZ106-104-200200- NEW YORK CITY METRO AREA CITY SKY/WX TMP DP RH WIND PRES REMARKS Central Park MOCLDY 88 66 48 VRB3 30.01R HX 90 Bronx Bot Gard N/A 84 64 51 NW1 30.01R LaGuardia APRT PTCLDY 88 68 51 VRB5 29.97R HX 91 Kennedy INTL PTCLDY 79 75 87 S13 29.99R Breezy Point NOT AVBL Newark/Liberty MOCLDY 89 67 47 W10 29.97R HX 92 Teterboro PTCLDY 87 66 49 N6 29.97R $$ NYZ177-179-078>081-200200- LONG ISLAND NEW YORK CITY SKY/WX TMP DP RH WIND PRES REMARKS Jones Beach N/A 77 N/A N/A SW7G14 N/A Matinecock PT N/A 81 N/A N/A S5 N/A Farmingdale CLEAR 79 70 74 SW12 29.99R MacArthur/ISP PTCLDY 79 72 79 SW7 29.99R Shirley CLEAR 79 73 82 SW7 30.00R Mt Sinai Harb N/A N/A N/A N/A S7 N/A Westhampton CLEAR 77 70 79 SW7 30.01R East Hampton FAIR 76 71 84 SW8 29.99R Montauk N/A 78 72 81 SW10G17 29.99R $$ NYZ052-065-067-200200- HUDSON VALLEY CITY SKY/WX TMP DP RH WIND PRES REMARKS White Plains CLEAR 80 65 59 CALM 29.99R Larchmont Harb N/A 79 N/A N/A S1 N/A Croton O-T Hud N/A 82 N/A N/A N1 N/A Newburgh PTCLDY 79 64 61 VRB5 30.00R Montgomery PTCLDY 75 66 73 CALM 29.99R Poughkeepsie PTCLDY 76 63 64 CALM 29.96S Albany CLOUDY 79 63 57 W5 29.98R $$ NJZ001-105-106-008-010-013-015-019>022-104-200200- NEW JERSEY CITY SKY/WX TMP DP RH WIND PRES REMARKS Newark/Liberty MOCLDY 89 67 47 W10 29.97R HX 92 Teterboro PTCLDY 87 66 49 N6 29.97R Caldwell PTCLDY 85 68 56 CALM 29.99R Somerville PTCLDY 79 72 79 CALM 29.97R Linden N/A 88 66 47 W6 29.99 HX 90 Perth Amboy N/A 86 N/A N/A W6 N/A Sussex LGT RAIN 78 72 81 CALM 30.01S Andover N/A 77 73 87 CALM 30.01S Trenton CLEAR 87 69 54 W3 29.99R HX 91 Millville CLEAR 78 73 84 CALM 30.02R Atlantic City PTCLDY 80 71 74 S5 30.02R Wrightstown MOCLDY 82 74 76 SW10 29.98R Toms River CLEAR 80 72 76 SW6 30.02R Belmar CLEAR 82 72 71 S6 30.01R $$ PAZ047>061-062-071-200200- EASTERN PENNSYLVANIA CITY SKY/WX TMP DP RH WIND PRES REMARKS Philadelphia MOCLDY 86 71 60 SW8 30.01R HX 91 Allentown CLOUDY 81 68 64 SW3 30.00R Scranton PTCLDY 76 68 76 CALM 30.03S $$ CTZ002-004>006-009-010-012-RIZ004-006-007-MAZ004-011-015-200200- SOUTHERN NEW ENGLAND IN CT CITY SKY/WX TMP DP RH WIND PRES REMARKS Bradley INTL MOCLDY 80 68 66 NW5 29.97R Hartford CLEAR 83 66 56 CALM 29.95R Danbury CLEAR 76 68 76 SW6 30.00R Wtrbury/Oxford CLEAR 79 64 61 MISG 30.01R Bridgeport CLEAR 80 73 79 SW9 29.97R Meriden CLEAR 75 67 76 CALM 29.97R New Haven CLEAR 80 73 79 VRB3 29.97R Chester FAIR 79 73 83 SW5 29.99R Groton CLEAR 75 71 87 SW6 29.97R Wilimantic PTCLDY 79 71 76 NE3 29.97R IN RI CITY SKY/WX TMP DP RH WIND PRES REMARKS Providence PTCLDY 79 73 82 SW8 29.96R Block Island CLEAR 74 72 93 SW15G21 29.98S Westerly CLEAR 77 71 82 SW6 29.98R IN MA CITY SKY/WX TMP DP RH WIND PRES REMARKS Boston PTCLDY 86 62 44 W12 29.93R Worcester CLEAR 74 62 66 NW7 30.00R Westfield MOCLDY 78 68 71 N3 29.97R Provincetown PTCLDY 72 70 93 SW12 29.95R Nantucket CLOUDY 70 70 100 SW7 29.98R FOG $$ ANZ330-335-338-340-345-350-353-355-200200- COASTAL MARINE OBSERVATIONS STATION/POSITION TIME SKY/WX TEMP WIND PRES VSBY WAVE AIR SEA DIR/SP/G HT/PER (UTC) (F) (DEG/KT/KT) (MB) (MI) (FT/S) NY HARB ENTRANCE 2350 78 76 200/ 17/ 21 1014.0 3/ 4 20 S FIRE ISLAND 0050 78 76 220/ 14/ 16 1015.0 3/ 4 GREAT SOUTH BAY 0015 78 82 220/ 14/ 17 N/A 23 SSW MONTAUK P 2350 77 75 1015.3 4/ 4 15 E BARNEGAT LI 0030 79 N/A 3/ 4 HUDSON CANYON 2350 79 79 220/ 14/ 16 1015.2 3/ 4 KINGS POINT 0030 82 72 190/ 6/ 8 1014.8 EXECUTION ROCKS 0030 81 170/ 6/ 8 N/A CENTRAL LI SOUND NOT AVBL EASTERN LI SOUND NOT AVBL ROBBINS REEF 0030 280/ 11/ 15 1015.4 $$ >>>>>>>>>>>>>>>>>>>>>>>>>>>> KEY <<<<<<<<<<<<<<<<<<<<<<<<<<< > < > SKY/WX - Sky Condition/Present Weather < > TMP - Temperature in Fahrenheit < > DP - Dew Point in Fahrenheit < > RH - Relative Humidity in Percent < > WIND - Direction (from) and Speed in MPH < > PRES - Mean Sea Level Pressure (inches of Hg) < > WCI - Wind Chill Index < > VSB - VISIBILITY IN MILES < > HX - HEAT INDEX < > TC - TEMPERATURE IN CELSIUS < > VRB - VARIABLE WIND DIRECTION < > < >>>>>>>>>>>>>>>>>>>>>>>>>>>> KEY <<<<<<<<<<<<<<<<<<<<<<<<<<<

USA.gov is the U.S. government's official web portal to all federal, state and local government web resources and services.